Location: Unspecified
(48.5910°N, 12.0210°E)
Time: 20:11:30
(UTC+00:00)

Daily predictions for brighter satellites

Satellite Brightness Start Highest point End
(mag) Time Altitude Azimuth Time Altitude Azimuth Time Altitude Azimuth
USA 267 3.8 17:00:44 10° E 17:06:56 47° NNE 17:13:07 10° WNW
Cosmos 724 4.3 17:03:19 10° SSW 17:09:09 78° SE 17:14:58 10° NE
ERS-2 3.2 17:07:14 10° ESE 17:10:18 25° ENE 17:13:23 10° N
CENTAUR R/B 4.1 17:08:07 10° SE 17:10:52 13° ESE 17:13:45 10° ENE
MOS 1 4.3 17:05:48 10° SSE 17:11:25 70° ENE 17:17:06 10° NNW
Cosmos 2233 Rocket 4.1 17:07:19 10° N 17:13:35 62° ENE 17:19:46 10° SSE
YAOGAN 1 2.9 17:11:05 10° S 17:15:25 73° WSW 17:19:46 10° NNW
EO 1 Del DPAF 3.9 17:17:29 10° NNE 17:20:58 32° E 17:24:27 10° SSE
Ariane Rocket 4.5 17:17:53 10° S 17:22:44 43° W 17:27:37 10° NNW
Cosmos 1733 Rocket 3.6 17:19:08 10° SSE 17:23:02 34° E 17:26:58 10° NNE
Cosmos 1633 4.2 17:21:19 10° ESE 17:23:16 14° E 17:25:14 10° NE
SKYMED 2 3.5 17:20:27 10° NNE 17:24:49 75° ESE 17:29:09 10° S
Cosmos 2219 Rocket 3.1 17:20:08 10° NW 17:25:41 55° WSW 17:31:11 10° S
Cosmos 2056 Rocket 3.7 17:22:18 10° NNW 17:27:44 86° WSW 17:33:10 10° SSE
Cosmos 1464 Rocket 4.5 17:22:18 10° N 17:27:57 37° ENE 17:33:33 10° SE
Resurs 01 Rocket 3.3 17:25:36 10° E 17:28:09 15° ENE 17:30:43 10° NNE
SPOT 3 Rocket 3.5 17:24:48 10° SSE 17:29:59 77° ENE 17:35:14 10° NNW
Cosmos 2112 Rocket 4.3 17:25:16 10° SSW 17:30:36 76° WNW 17:36:01 10° NNE
Okean 3 4.0 17:27:03 10° N 17:30:53 34° ENE 17:34:42 10° SE
Iridium 2 4.3 17:27:31 10° NNW 17:31:20 62° W 17:35:06 10° S
Cosmos 1452 Rocket 3.8 17:28:58 10° NNW 17:34:06 48° ENE 17:39:11 10° SE
NOSS 3-2 (A) 3.6 17:29:10 10° SSW 17:34:59 57° ESE 17:41:29 10° NE
ATLAS 3B R/B 2.8 17:28:46 10° SW 17:36:01 88° SE 17:42:58 10° NE
HJ-1C 4.2 17:34:08 10° SE 17:37:09 30° ENE 17:40:12 10° N
Cosmos 2219 3.4 17:31:48 10° SSW 17:37:25 77° WNW 17:43:07 10° NNE
Cosmos 2237 Rocket 2.3 17:32:18 10° NNW 17:37:58 82° WSW 17:43:35 10° SSE
Landsat 4 3.6 17:34:32 10° NNE 17:38:15 63° ESE 17:41:58 10° S
SL-16 R/B 2.4 17:34:32 10° NNW 17:40:04 50° NE 17:45:34 10° SE
Cosmos 2227 Rocket 2.4 17:35:22 10° S 17:40:47 51° ESE 17:46:15 10° NE
NOAA 12 4.5 17:38:13 10° S 17:43:31 71° WSW 17:48:52 10° NNW
Cosmos 44 Rocket 3.6 17:41:21 10° NNW 17:46:14 52° NE 17:50:51 12° ESE
CZ-4 R/B 4.1 17:43:41 10° SSW 17:47:00 24° W 17:50:17 10° NW
Cosmos 2285 Rocket 4.0 17:41:19 10° SSW 17:47:38 78° ESE 17:54:02 10° NNE
Cosmos 1862 4.4 17:44:01 10° SSW 17:47:52 48° WNW 17:51:45 10° N
SJ-6B 3.2 17:45:45 10° SE 17:49:16 39° ENE 17:52:52 10° N
Cosmos 2084 Rocket 3.5 17:45:23 10° SSW 17:49:40 56° SE 17:53:05 14° NE
USA 238 DEB 3.9 17:43:15 10° SW 17:50:10 78° NW 17:57:13 10° NE
USA 238 3.9 17:43:21 10° SW 17:50:16 79° NW 17:57:19 10° NE
Meteor 1-18 Rocket 4.3 17:47:47 10° N 17:53:19 51° ENE 17:58:42 10° SSE
Cosmos 2297 Rocket 2.3 17:49:37 10° S 17:55:08 57° ESE 18:00:41 10° NE
MTI 4.4 17:53:36 10° N 17:56:45 59° WNW 17:59:54 10° SSW
Cosmos 1420 Rocket 4.0 17:51:49 10° NNW 17:57:03 60° ENE 18:02:17 10° SE
Iridium 4 Rocket 3.6 17:52:22 10° N 17:57:20 46° E 18:01:50 10° SSE
Okean 1 4.0 17:54:23 10° N 17:58:02 33° ENE 18:00:41 16° SE
Cosmos 158 Rocket 4.4 17:57:29 10° SSE 18:01:51 34° ESE 18:06:14 10° NE
Cosmos 2034 Rocket 4.2 17:55:41 10° N 18:01:51 49° ENE 18:08:00 10° SSE
Sich 1 Rocket 4.3 17:58:20 10° SSE 18:02:17 31° E 18:06:14 10° NNE
Cosmos 1378 Rocket 3.6 17:59:32 10° N 18:03:53 55° ENE 18:08:13 10° SSE
Cosmos 1891 Rocket 4.5 17:59:43 10° N 18:05:57 60° ENE 18:12:00 10° SSE
USA 186 2.9 18:07:07 26° NE 18:07:07 26° NE 18:09:30 10° N
STPSAT 2 (USA 217) 4.5 18:03:21 10° SSW 18:07:49 79° ESE 18:12:20 10° NNE
Cosmos 2333 Rocket 4.3 18:05:23 10° NW 18:10:14 30° WSW 18:15:02 10° SSW
Cosmos 1782 Rocket 4.3 18:07:42 10° SSE 18:11:32 29° E 18:15:22 10° NNE
Lacrosse 5 3.5 18:07:13 10° WNW 18:11:41 32° SW 18:16:07 10° SSE
CZ-4C R/B 3.7 18:06:34 10° NW 18:12:27 32° NNE 18:16:07 21° ENE
COSMO-SKYMED 1 4.1 18:08:49 10° N 18:12:50 37° WNW 18:16:49 10° SW
USA 215 3.5 18:09:24 19° ENE 18:14:04 50° SE 18:20:23 10° SSW
H-2A R/B 3.8 18:10:56 10° S 18:14:44 50° W 18:18:34 10° NNW
Meteor 1-25 Rocket 4.2 18:09:21 10° S 18:14:47 60° E 18:20:16 10° NNE
Tiangong 2 3.2 18:12:35 10° WSW 18:15:01 20° SSW 18:16:18 16° SSE
Cosmos 405 3.0 18:12:30 10° SSW 18:16:00 79° WNW 18:19:32 10° N
Thor Agena Rocket 3.6 18:14:49 10° NNE 18:19:48 50° E 18:24:42 10° S
CRYOSAT 2 4.5 18:16:36 10° NNE 18:21:22 49° E 18:26:04 10° SSE
Cosmos 2082 3.6 18:15:50 10° SSW 18:21:26 79° ESE 18:27:06 10° NNE
FREGAT/IRIS 3.7 18:19:01 10° S 18:21:52 44° W 18:24:45 10° NNW
Meteor 2-4 Rocket 4.4 18:19:34 10° N 18:24:55 34° ENE 18:26:10 31° E
NOSS 3-2 (C) 3.4 18:20:41 10° SW 18:26:43 86° SE 18:32:57 12° NE
CZ-2D R/B 3.2 18:23:00 10° SSE 18:26:54 86° ENE 18:30:50 10° NNW
Cosmos 44 3.7 18:22:21 10° NW 18:27:17 68° SW 18:31:47 14° SSE
Cosmos 1812 3.9 18:27:22 10° NNW 18:31:06 44° W 18:34:46 10° SSW
USA 32 3.9 18:27:16 10° S 18:32:26 66° E 18:37:37 10° N
YAOGAN 6 3.7 18:34:08 31° NNE 18:34:08 31° NNE 18:36:25 10° N
Envisat 2.9 18:29:29 10° SSE 18:34:35 86° ENE 18:39:42 10° NNW
ERS-2 4.2 18:40:39 10° SSW 18:43:53 28° W 18:47:08 10° NW
ARGOS Delta rocket 3.7 18:39:18 10° NNE 18:44:21 77° E 18:49:04 10° S
Cosmos 1110 Rocket 4.2 18:39:15 10° NNW 18:44:21 48° ENE 18:44:53 46° E
SeaSat 1 3.2 18:39:52 10° SSE 18:44:41 53° WSW 18:49:32 10° NW
Cosmos 1939 Rocket 2.8 18:45:19 65° ENE 18:45:19 65° ENE 18:49:25 10° N
SL-8 R/B 4.3 18:42:20 10° SW 18:46:35 39° SSE 18:46:35 39° SSE
USA 267 3.2 18:46:41 36° ESE 18:49:36 84° NNE 18:56:11 10° NW
H-2A R/B 3.8 18:51:28 19° NNE 18:51:28 19° NNE 18:53:47 10° N
ATLAS CENTAUR R/B 3.1 18:46:36 10° NNW 18:48:54 21° NNE 18:48:54 21° NNE
Cosmos 1908 Rocket 3.9 18:47:18 10° SSW 18:51:46 68° WNW 18:56:14 10° N
ARGOS 4.4 18:58:09 27° NE 18:58:09 27° NE 19:01:23 10° N
Tsikada Rocket 3.9 18:50:58 10° S 18:57:19 71° E 19:03:44 10° NNE
Cosmos 1633 3.7 18:54:26 10° SSW 18:57:50 42° WNW 19:01:16 10° N
Resurs 1-3 3.5 18:57:04 55° S 18:58:00 86° WSW 19:02:26 10° NNW
CENTAUR R/B 2.4 18:53:57 10° SSW 19:00:00 68° SE 19:02:44 37° NE
DNEPR-1 R/B 4.4 18:57:14 10° WSW 19:01:18 47° NW 19:03:01 31° NNE
Resurs 01 Rocket 1.7 19:03:08 54° S 19:04:04 75° WSW 19:08:31 10° NNW
Cosmos 921 Rocket 3.5 19:00:23 10° NNW 19:04:52 61° WSW 19:06:14 40° SSW
NOAA 11 4.1 19:05:30 60° ENE 19:05:30 60° ENE 19:10:45 10° N
Cosmos 1943 3.5 19:02:54 10° NNW 19:08:01 48° NE 19:08:01 48° NE
Meteor 1-13 Rocket 4.0 19:04:44 10° N 19:10:20 86° E 19:11:29 58° SSE
Cosmos 1975 Rocket 3.7 19:10:44 10° NNW 19:15:05 55° W 19:16:13 42° SW
Cosmos 1331 Rocket 4.0 19:14:20 10° NNW 19:19:13 72° NNE 19:19:13 72° NNE
SL-16 R/B 3.9 19:19:03 10° NW 19:23:57 31° WSW 19:28:50 10° SSW
Geosat 4.0 19:24:32 80° WNW 19:24:32 80° WNW 19:29:28 10° SW
Spot 2 Rocket 3.8 19:23:55 52° SSW 19:24:53 64° WSW 19:29:57 10° NNW
Cosmos 2227 Rocket 3.8 19:20:01 10° WSW 19:25:05 33° NW 19:30:11 10° NNE
ATLAS 3B R/B 4.1 19:21:09 10° W 19:27:31 34° NNW 19:32:13 16° NNE
Cosmos 1048 Rocket 4.2 19:23:02 10° SSW 19:28:21 68° WNW 19:29:53 45° N
Cosmos 2297 Rocket 3.9 19:34:33 10° WSW 19:39:31 30° NW 19:44:31 10° NNE
Cosmos 1603 4.0 19:36:49 10° NW 19:42:24 61° WSW 19:42:25 60° WSW
USA 215 3.4 19:56:45 65° N 19:57:15 68° NNW 20:03:45 10° WSW
CZ-4C R/B 2.9 19:55:00 10° NW 20:01:19 73° N 20:01:19 73° N
Cosmos 1634 Rocket 4.4 19:56:58 10° NNW 20:02:59 56° W 20:03:07 56° W
H-2A R/B 4.1 20:32:06 23° NNW 20:32:06 23° NNW 20:34:04 10° NNW
USA 267 4.4 20:34:01 34° WSW 20:34:01 34° WSW 20:38:59 10° WNW
CENTAUR R/B 3.9 20:45:10 10° W 20:50:01 37° NW 20:50:01 37° NW
